Wind_Speed
38 37 36 34 33 32 30 29 28 26 24 23 22 20 18 16 14 14 14 15 14 13 13 14 13 14 15 14 13 12 12 13 13 15 18 20 20 16 13 14 15 15
40 39 38 36 34 33 31 29 28 26 25 23 22 20 18 16 15 15 15 15 15 14 14 15 14 14 15 15 14 13 13 14 15 14 16 20 20 18 16 16 17 16
41 41 40 39 37 35 33 31 29 28 26 24 23 21 19 18 17 16 16 15 16 15 15 15 15 15 15 15 15 15 14 15 15 15 15 17 18 19 19 19 18 17
42 42 42 41 39 36 34 33 32 30 28 26 24 23 21 19 19 19 18 17 17 17 17 16 16 16 16 15 15 15 15 15 15 16 15 15 15 16 20 22 20 19
44 43 42 42 41 38 36 36 35 33 31 29 26 25 23 22 21 20 21 20 19 19 19 18 17 18 17 17 16 16 16 16 16 17 17 16 14 13 17 21 21 20
44 45 44 43 42 41 39 38 37 36 34 32 29 27 25 23 22 22 22 21 21 21 21 20 19 19 19 19 19 18 18 18 18 18 18 18 16 14 15 18 20 20
44 45 46 45 44 42 41 40 38 37 36 34 32 30 27 25 24 23 23 22 22 23 23 22 21 21 21 21 21 20 20 19 19 19 18 18 17 16 15 17 19 20
44 45 46 47 46 45 43 41 40 38 37 36 34 33 30 28 26 24 24 24 23 24 24 24 24 23 22 22 22 22 22 21 21 21 20 19 19 19 18 17 18 19
43 45 46 47 47 47 46 44 42 40 39 38 37 35 33 31 29 27 26 25 25 25 25 26 26 26 25 24 24 23 23 23 22 22 22 21 20 20 19 19 18 19
43 44 46 47 48 48 47 46 45 43 42 40 39 37 36 34 32 30 28 27 27 27 26 27 29 29 27 26 25 25 24 24 24 24 23 23 22 21 21 20 20 20
43 43 46 48 48 48 48 47 46 46 44 43 41 40 38 36 35 33 31 30 29 29 28 28 29 31 30 29 27 26 25 25 25 25 25 24 23 23 22 22 22 22
43 43 45 46 48 48 48 47 47 47 46 45 44 42 40 38 37 35 33 32 31 30 29 28 29 31 32 31 30 28 27 26 26 26 25 25 24 24 23 23 23 23
45 44 43 44 46 47 48 48 48 47 47 46 45 44 42 40 39 37 36 34 33 32 31 29 29 30 32 33 32 31 29 28 27 27 26 26 25 24 24 24 24 23
45 44 43 42 43 45 47 48 49 48 48 47 46 45 44 42 41 39 37 36 35 35 33 31 31 31 32 33 34 33 32 31 29 28 28 27 26 25 24 24 24 24
45 44 44 43 43 44 46 48 49 49 48 48 47 47 46 44 42 41 39 38 37 37 36 34 34 33 33 34 34 34 33 32 31 30 29 29 27 26 25 25 24 24
44 45 45 44 44 45 46 47 48 49 49 48 48 48 46 45 44 42 41 40 39 39 38 38 37 35 34 34 35 34 33 32 31 31 31 30 29 28 27 25 24 24
43 43 44 44 45 45 46 47 48 48 49 49 49 48 47 46 44 43 42 41 40 40 40 40 39 37 35 35 35 35 34 33 32 31 31 31 30 30 29 27 26 25
42 42 43 43 44 44 46 47 48 48 49 49 49 48 48 46 45 44 43 42 41 41 41 41 40 39 37 35 35 35 34 34 33 32 32 31 31 31 30 29 28 27
40 40 41 41 41 42 43 45 47 49 49 50 49 49 48 48 46 45 44 43 42 42 42 42 41 40 38 37 36 35 34 34 34 33 33 32 32 31 31 30 30 29
40 40 40 39 39 39 40 43 47 49 49 50 49 49 49 49 48 46 45 45 44 43 43 42 41 40 39 38 37 36 35 35 35 35 34 33 33 32 31 31 30 30
41 41 40 39 38 39 39 41 44 48 49 49 49 50 50 50 49 48 47 46 45 45 44 44 42 39 38 38 37 37 36 36 36 36 36 35 34 33 33 32 31 30
43 42 41 40 39 39 40 41 42 45 48 49 49 49 50 50 49 49 48 47 46 46 46 45 43 40 38 37 36 36 36 37 38 38 38 38 36 35 34 32 31 31
43 45 43 41 41 41 42 42 41 42 45 48 49 50 50 50 50 50 49 48 47 47 47 46 44 41 39 38 36 34 35 36 37 38 38 38 37 35 34 33 32 32
41 46 47 44 43 44 44 43 42 42 43 45 49 50 50 50 50 49 49 49 48 47 47 46 44 42 40 39 37 35 35 34 34 35 36 37 36 35 34 34 33 32
41 45 49 47 45 45 45 44 43 42 42 43 47 49 50 49 48 49 49 49 49 48 47 46 45 43 41 40 38 37 36 35 34 34 34 34 34 34 34 34 33 33
44 46 49 48 46 45 45 45 44 43 43 43 45 47 49 48 48 48 49 49 49 49 48 47 46 44 43 41 40 39 38 36 35 35 35 33 32 32 32 32 32 32
Wind_Direction
208 208 208 207 203 201 202 202 203 204 203 199 200 202 200 200 203 204 203 202 203 205 207 209 206 199 194 193 195 200 204 204 203 209 213 214 216 210 190 178 175 173
209 209 210 211 208 204 204 206 208 208 208 207 206 206 206 206 209 210 207 205 206 205 206 212 213 208 202 199 201 205 206 204 201 203 208 213 219 216 199 189 186 183
211 210 211 214 213 209 206 208 211 213 213 213 213 214 215 213 214 214 212 209 210 210 207 210 214 215 213 206 204 208 209 207 203 202 204 208 216 219 211 205 202 193
212 212 212 216 217 214 211 210 212 215 217 218 219 220 220 219 218 218 218 216 215 215 213 211 212 215 218 215 208 205 207 210 209 207 206 203 206 213 212 211 212 204
214 214 214 216 219 219 216 214 214 216 218 221 223 223 222 221 220 219 220 220 218 217 215 214 214 215 217 219 215 208 205 207 212 212 211 206 202 204 208 211 212 207
218 216 216 217 219 221 221 220 219 219 220 223 224 225 223 221 221 220 220 221 220 217 215 215 217 217 218 219 219 216 210 207 211 216 215 210 205 202 205 210 209 204
222 219 219 219 220 222 224 224 223 223 224 225 226 227 227 225 225 224 223 223 223 220 217 217 218 220 221 221 221 220 217 212 213 217 218 214 211 209 208 210 207 203
225 223 221 221 222 223 225 226 227 227 227 228 228 228 229 229 229 229 228 226 225 223 221 219 219 220 222 223 224 222 220 218 216 218 220 218 216 215 213 214 212 208
227 227 225 223 223 224 226 227 228 229 230 231 232 232 232 232 232 232 232 230 228 226 224 221 220 220 221 224 225 224 222 221 219 220 222 221 219 217 216 219 222 220
227 228 228 226 225 225 227 228 229 231 232 233 234 235 235 235 235 234 234 233 232 229 226 225 222 220 220 222 225 226 225 224 223 223 223 224 222 220 218 221 225 228
227 228 229 228 228 228 228 229 229 231 232 234 235 235 236 237 237 236 234 234 234 232 230 228 225 222 220 221 224 226 226 226 226 226 226 226 226 225 224 224 227 230
227 227 229 229 230 230 230 230 230 230 232 233 234 235 236 237 237 237 236 236 235 234 233 231 228 225 223 222 223 225 227 227 228 229 229 229 229 229 230 230 232 234
228 228 229 230 231 232 232 232 232 232 232 233 234 235 236 237 237 237 238 238 237 234 234 233 232 230 227 226 225 225 226 227 228 230 231 231 231 230 231 233 234 236
229 230 230 232 233 233 233 233 233 233 233 233 234 235 236 237 238 239 239 239 238 236 234 233 233 233 231 230 228 227 227 228 229 230 231 233 233 232 232 233 234 236
230 230 231 232 233 234 234 234 233 233 234 234 234 235 236 237 239 240 240 239 238 237 235 233 233 233 233 232 232 230 229 229 230 231 232 233 235 236 236 236 236 236
230 231 232 232 233 234 234 234 233 233 232 233 234 235 236 237 238 239 239 239 238 237 235 234 234 233 232 232 233 233 233 232 231 231 231 232 234 237 238 238 238 238
231 232 232 233 234 235 234 234 233 231 231 232 233 234 235 236 236 237 237 238 237 236 236 235 234 233 232 232 233 234 235 235 235 234 233 232 233 235 238 240 241 241
232 233 233 234 235 235 234 234 233 231 230 230 231 233 234 235 235 235 236 237 236 236 236 236 236 235 233 233 232 233 235 236 238 238 237 237 236 236 238 240 243 245
233 234 235 235 236 237 236 234 232 231 229 229 230 231 233 234 234 235 235 236 236 236 236 236 237 237 236 235 234 233 234 236 238 240 240 241 241 240 240 240 242 245
234 235 236 237 238 238 237 235 232 231 230 229 229 230 231 232 233 234 234 235 235 236 236 237 238 238 238 238 237 235 235 236 238 240 242 243 243 244 244 244 244 246
235 236 237 239 239 239 238 237 234 232 230 229 228 228 230 231 233 234 234 235 235 235 236 237 238 239 239 239 239 238 237 237 238 240 242 244 245 246 247 248 248 249
234 236 238 239 240 239 238 238 236 234 231 229 228 228 229 231 233 234 234 235 235 235 235 237 239 240 240 240 240 240 240 240 240 241 242 244 246 247 248 249 249 250
234 236 237 239 239 239 239 238 237 236 233 230 228 228 228 230 231 233 234 235 235 234 235 237 239 240 240 240 240 240 241 241 241 242 243 245 247 248 249 249 249 250
237 237 237 239 240 240 240 239 238 237 235 232 229 228 229 230 231 232 233 234 235 235 235 237 239 240 241 240 240 240 241 241 242 243 244 246 247 247 248 248 249 249
241 239 237 239 241 242 241 240 239 239 237 235 232 230 230 230 231 232 232 233 235 236 237 238 240 242 242 242 242 241 241 241 242 243 243 245 246 246 247 248 247 247
243 239 237 239 242 243 242 241 240 239 238 236 234 232 230 230 231 232 233 233 234 235 236 238 240 242 244 244 244 244 243 243 243 243 243 243 244 245 246 247 247 246
Height
1557 1559 1561 1563 1564 1566 1568 1569 1570 1571 1573 1574 1575 1576 1577 1578 1579 1580 1582 1583 1584 1585 1586 1586 1587 1588 1589 1589 1590 1591 1591 1592 1592 1593 1594 1595 1596 1597 1598 1598 1599 1599
1555 1557 1559 1561 1563 1565 1566 1567 1568 1569 1571 1572 1573 1575 1576 1577 1578 1579 1581 1582 1582 1584 1585 1586 1586 1587 1588 1589 1589 1590 1590 1591 1592 1592 1593 1594 1595 1596 1597 1598 1599 1599
1552 1555 1556 1558 1560 1562 1564 1566 1567 1568 1569 1571 1572 1574 1575 1576 1578 1578 1580 1581 1581 1582 1583 1584 1585 1586 1587 1588 1589 1589 1590 1590 1591 1592 1592 1593 1594 1595 1597 1598 1598 1599
1550 1552 1554 1555 1557 1560 1562 1564 1565 1566 1568 1569 1571 1573 1574 1575 1577 1577 1578 1579 1580 1581 1582 1583 1584 1585 1586 1587 1588 1588 1589 1590 1591 1591 1592 1593 1593 1594 1595 1596 1597 1598
1547 1549 1551 1554 1555 1558 1560 1562 1563 1565 1566 1567 1569 1571 1573 1574 1575 1576 1577 1578 1579 1580 1581 1582 1583 1584 1585 1586 1586 1587 1588 1589 1590 1591 1591 1592 1592 1593 1594 1595 1596 1597
1544 1547 1549 1551 1553 1556 1558 1559 1561 1563 1564 1566 1567 1569 1571 1572 1574 1575 1576 1577 1578 1579 1579 1580 1581 1582 1583 1584 1585 1586 1587 1588 1589 1590 1590 1591 1592 1592 1593 1594 1595 1595
1541 1544 1546 1549 1551 1553 1555 1557 1559 1561 1563 1564 1566 1567 1569 1570 1572 1573 1574 1575 1576 1577 1578 1579 1580 1581 1582 1583 1584 1585 1586 1587 1588 1588 1589 1590 1591 1591 1592 1593 1594 1594
1538 1540 1543 1546 1548 1550 1552 1554 1557 1558 1561 1562 1563 1565 1566 1568 1569 1571 1572 1573 1574 1575 1576 1577 1578 1579 1580 1581 1582 1583 1584 1585 1586 1586 1587 1588 1589 1590 1591 1591 1592 1593
1535 1537 1540 1543 1545 1548 1550 1552 1554 1556 1558 1560 1561 1563 1564 1566 1567 1569 1570 1571 1572 1573 1574 1575 1576 1577 1578 1579 1580 1581 1582 1583 1584 1585 1586 1586 1587 1588 1589 1590 1591 1591
1531 1534 1537 1540 1542 1545 1547 1549 1551 1553 1555 1557 1558 1560 1562 1563 1565 1566 1568 1568 1569 1571 1572 1573 1574 1575 1576 1577 1578 1579 1580 1581 1582 1583 1584 1585 1585 1587 1588 1589 1589 1590
1528 1530 1533 1535 1538 1541 1543 1546 1548 1550 1552 1554 1555 1557 1559 1561 1562 1564 1565 1566 1566 1568 1569 1570 1572 1573 1574 1575 1576 1577 1578 1580 1581 1581 1582 1583 1584 1585 1586 1587 1587 1588
1525 1527 1529 1532 1534 1537 1540 1543 1545 1547 1549 1550 1552 1554 1556 1558 1559 1560 1562 1563 1564 1565 1566 1568 1569 1570 1571 1572 1574 1575 1576 1577 1579 1579 1580 1581 1582 1583 1584 1585 1585 1586
1521 1523 1526 1529 1531 1534 1537 1539 1542 1544 1546 1547 1549 1551 1553 1554 1556 1557 1559 1560 1561 1562 1564 1565 1567 1568 1569 1570 1571 1572 1574 1575 1576 1577 1578 1579 1580 1581 1582 1583 1584 1584
1518 1521 1523 1526 1528 1531 1534 1536 1538 1540 1542 1544 1546 1548 1549 1551 1552 1554 1556 1557 1558 1560 1561 1562 1564 1565 1566 1567 1568 1570 1571 1572 1574 1575 1576 1577 1578 1579 1580 1581 1582 1582
1516 1519 1521 1523 1526 1528 1530 1532 1535 1537 1539 1541 1543 1544 1546 1548 1549 1551 1553 1554 1556 1557 1558 1560 1560 1561 1563 1564 1565 1567 1568 1570 1571 1572 1573 1574 1575 1576 1577 1578 1579 1580
1513 1516 1518 1520 1522 1524 1526 1528 1531 1533 1535 1537 1539 1541 1542 1544 1546 1548 1549 1551 1552 1553 1555 1556 1557 1558 1559 1561 1563 1564 1566 1567 1568 1569 1571 1572 1573 1574 1575 1576 1577 1577
1510 1512 1514 1516 1518 1520 1522 1524 1527 1530 1532 1534 1535 1537 1539 1541 1543 1544 1546 1547 1549 1550 1551 1552 1553 1554 1556 1558 1560 1561 1563 1564 1565 1567 1568 1569 1570 1571 1572 1573 1574 1575
1505 1508 1510 1512 1514 1516 1518 1521 1523 1526 1528 1530 1532 1534 1536 1538 1539 1540 1542 1544 1545 1546 1548 1549 1550 1551 1553 1555 1556 1558 1560 1561 1562 1564 1565 1566 1567 1568 1570 1571 1571 1572
1501 1504 1506 1508 1510 1513 1515 1517 1519 1521 1523 1526 1528 1530 1533 1534 1535 1537 1538 1540 1541 1542 1544 1545 1546 1548 1550 1552 1553 1555 1557 1558 1559 1561 1562 1563 1564 1566 1567 1568 1569 1570
1497 1499 1501 1504 1507 1509 1511 1513 1515 1517 1519 1522 1525 1527 1529 1530 1532 1533 1535 1536 1537 1538 1540 1541 1543 1544 1546 1548 1550 1552 1554 1555 1557 1558 1559 1560 1561 1562 1564 1565 1566 1567
1494 1495 1498 1500 1503 1505 1507 1509 1511 1513 1516 1519 1521 1523 1525 1526 1528 1530 1531 1532 1534 1535 1537 1538 1539 1541 1543 1545 1547 1549 1551 1553 1554 1555 1556 1557 1558 1559 1560 1561 1562 1563
1491 1493 1494 1497 1499 1502 1503 1505 1507 1509 1512 1515 1518 1520 1522 1523 1525 1526 1527 1529 1530 1532 1533 1534 1535 1537 1540 1541 1543 1546 1548 1550 1551 1552 1553 1553 1554 1555 1556 1557 1559 1559
1489 1490 1491 1493 1496 1497 1499 1501 1504 1506 1509 1512 1515 1516 1518 1519 1521 1522 1524 1526 1527 1529 1530 1530 1532 1534 1536 1538 1540 1543 1545 1546 1548 1549 1550 1550 1551 1552 1553 1554 1555 1555
1486 1487 1488 1490 1491 1493 1495 1498 1500 1503 1506 1508 1511 1513 1514 1516 1518 1520 1522 1523 1524 1525 1526 1527 1529 1531 1533 1535 1537 1539 1541 1543 1544 1546 1546 1547 1548 1549 1550 1550 1551 1552
1482 1483 1485 1486 1487 1489 1491 1494 1497 1500 1502 1505 1507 1509 1511 1514 1516 1517 1518 1520 1521 1522 1524 1525 1526 1528 1530 1532 1534 1536 1538 1540 1542 1543 1543 1544 1545 1546 1546 1547 1547 1548
1477 1478 1480 1482 1483 1485 1488 1491 1494 1496 1499 1501 1503 1505 1508 1511 1513 1514 1515 1516 1518 1520 1521 1523 1524 1525 1527 1529 1531 1533 1535 1538 1539 1540 1540 1541 1542 1542 1543 1543 1544 1545